Weather History for Findlay, OH

Change the Weather History Date:

Monday, March 18, 2013

  Actual Average Record
Temperature  
Mean Temperature 36 °F -  
Max Temperature 43 °F 43 °F 73 °F (2012)
Min Temperature 28 °F 27 °F 7 °F (1967)
Degree Days  
Heating Degree Days 30    
Moisture  
Dew Point 33 °F    
Average Humidity 89    
Maximum Humidity 100    
Minimum Humidity 72    
Precipitation  
Precipitation 0.17 in - - ()
Sea Level Pressure  
Sea Level Pressure 29.72 in    
Wind  
Wind Speed 13 mph (ESE)    
Max Wind Speed 28 mph    
Max Gust Speed 33 mph    
Visibility 5 miles    
Events Rain    
Averages and records for this station are not official NWS values.
T = Trace of Precipitation, MM = Missing Value Source: NWS Daily Summary

Daily Weather History Graph

Daily Weather History Graph

Search for Another Location

Airport:

Trip Planner

Search our weather history database for the weather conditions in past years. The results will help you decide how hot, cold, wet, or windy it might be!

Date:

Astronomy

Mar. 18, 2013 Rise Set
Actual Time 7:40 AM EDT 7:44 PM EDT
Civil Twilight 7:13 AM EDT 8:12 PM EDT
Nautical Twilight 6:41 AM EDT 8:44 PM EDT
Astronomical Twilight 6:09 AM EDT 9:17 PM EDT
Moon 11:37 AM EDT (3/18) 1:46 AM EDT (3/18)
Length of Visible Light 12h 58m
Length of Day
12h 03m
Waxing Crescent, 40% of the Moon is Illuminated
Mar 18
Waxing Crescent
Mar 19
First Quarter
Mar 27
Full
Apr 3
Last Quarter
Apr 10
New

Hourly Weather History & Observations

Time (EDT) Temp. Windchill Dew Point Humidity Pressure Visibility Wind Dir Wind Speed Gust Speed Precip Events Conditions
12:53 AM 28.0 °F 17.5 °F 21.0 °F 75% 30.10 in 10.0 mi ENE 12.7 mph - N/A   Clear
1:53 AM 28.0 °F 17.0 °F 19.9 °F 72% 30.07 in 10.0 mi ENE 13.8 mph - N/A   Clear
2:53 AM 28.0 °F 17.5 °F 21.0 °F 75% 30.04 in 10.0 mi ENE 12.7 mph - N/A   Clear
3:53 AM 28.9 °F 17.7 °F 21.0 °F 72% 29.98 in 10.0 mi East 15.0 mph - N/A   Mostly Cloudy
4:53 AM 28.9 °F 16.9 °F 23.0 °F 78% 29.94 in 8.0 mi East 17.3 mph - 0.00 in   Overcast
5:04 AM 28.4 °F 18.5 °F 24.8 °F 86% 29.91 in 8.0 mi ENE 11.5 mph - 0.01 in Rain Light Freezing Rain
5:53 AM 30.0 °F 20.5 °F 25.0 °F 82% 29.90 in 7.0 mi East 11.5 mph - 0.03 in Rain Light Freezing Rain
6:15 AM 30.2 °F 20.2 °F 24.8 °F 80% 29.86 in 6.0 mi East 12.7 mph - 0.03 in Rain Light Freezing Rain
6:27 AM 30.2 °F 20.8 °F 26.6 °F 86% 29.84 in 6.0 mi ENE 11.5 mph - 0.05 in Rain Light Freezing Rain
6:36 AM 30.2 °F 19.3 °F 26.6 °F 86% 29.84 in 7.0 mi East 15.0 mph - 0.05 in Rain Light Freezing Rain
6:53 AM 30.9 °F 22.2 °F 27.0 °F 85% 29.85 in 7.0 mi East 10.4 mph - 0.06 in Rain Light Freezing Rain
7:53 AM 32.0 °F 24.2 °F 28.9 °F 88% 29.83 in 3.0 mi ENE 9.2 mph - 0.05 in Rain Light Freezing Rain
8:09 AM 32.0 °F 23.0 °F 28.4 °F 87% 29.80 in 2.5 mi ENE 11.5 mph - 0.00 in Rain Light Freezing Rain
8:15 AM 32.0 °F 22.5 °F 30.2 °F 93% 29.78 in 2.5 mi ENE 12.7 mph - 0.00 in Rain Light Freezing Rain
8:26 AM 32.0 °F 23.6 °F 30.2 °F 93% 29.80 in 3.0 mi ENE 10.4 mph - 0.00 in Rain Light Freezing Rain
8:36 AM 32.0 °F 24.2 °F 30.2 °F 93% 29.79 in 2.5 mi ENE 9.2 mph - 0.00 in Rain Light Freezing Rain
8:48 AM 32.0 °F 23.0 °F 30.2 °F 93% 29.78 in 2.0 mi ENE 11.5 mph - 0.00 in   Overcast
8:53 AM 32.0 °F 22.5 °F 30.0 °F 92% 29.79 in 2.0 mi ENE 12.7 mph - 0.00 in   Overcast
9:04 AM 32.0 °F 23.6 °F 30.2 °F 93% 29.77 in 3.0 mi ENE 10.4 mph - 0.00 in   Overcast
9:46 AM 33.8 °F 25.8 °F 30.2 °F 87% 29.75 in 2.5 mi ENE 10.4 mph - 0.00 in   Overcast
9:53 AM 33.1 °F 26.1 °F 30.9 °F 92% 29.77 in 3.0 mi East 8.1 mph - 0.00 in   Overcast
10:03 AM 33.8 °F 25.8 °F 30.2 °F 87% 29.75 in 2.5 mi ENE 10.4 mph - N/A   Overcast
10:30 AM 33.8 °F 26.4 °F 30.2 °F 87% 29.75 in 3.0 mi East 9.2 mph - N/A   Overcast
10:53 AM 33.1 °F 24.4 °F 30.9 °F 92% 29.74 in 4.0 mi East 11.5 mph - N/A   Overcast
11:24 AM 33.8 °F 25.8 °F 32.0 °F 93% 29.70 in 4.0 mi East 10.4 mph - N/A   Overcast
11:53 AM 34.0 °F 26.0 °F 32.0 °F 92% 29.71 in 4.0 mi East 10.4 mph - N/A   Overcast
12:53 PM 35.1 °F 27.9 °F 33.1 °F 92% 29.68 in 6.0 mi East 9.2 mph - N/A   Overcast
1:04 PM 35.6 °F 28.6 °F 33.8 °F 93% 29.66 in 6.0 mi East 9.2 mph - N/A   Overcast
1:53 PM 36.0 °F 30.3 °F 35.1 °F 97% 29.65 in 7.0 mi East 6.9 mph - N/A   Overcast
2:00 PM 35.6 °F 29.9 °F 35.6 °F 100% 29.63 in 1.8 mi East 6.9 mph - 0.00 in Rain Light Rain
2:53 PM 37.9 °F 32.7 °F 37.0 °F 97% 29.60 in 2.0 mi ESE 6.9 mph - 0.02 in Rain Light Rain
3:09 PM 39.2 °F 34.2 °F 37.4 °F 93% 29.57 in 3.0 mi ESE 6.9 mph - 0.00 in   Overcast
3:32 PM 39.2 °F 34.2 °F 39.2 °F 100% 29.55 in 2.5 mi ESE 6.9 mph - 0.00 in   Overcast
3:53 PM 39.9 °F 35.1 °F 39.0 °F 97% 29.57 in 2.5 mi SSE 6.9 mph - 0.00 in   Overcast
4:20 PM 41.0 °F 36.4 °F 39.2 °F 93% 29.55 in 1.8 mi SSE 6.9 mph - N/A   Overcast
4:29 PM 41.0 °F 37.1 °F 39.2 °F 93% 29.55 in 2.0 mi South 5.8 mph - N/A   Overcast
4:53 PM 41.0 °F 35.8 °F 39.9 °F 96% 29.56 in 2.5 mi SSW 8.1 mph - 0.00 in Rain Light Rain
5:29 PM 42.8 °F 37.5 °F 41.0 °F 93% 29.57 in 4.0 mi SSW 9.2 mph - 0.00 in   Overcast
5:44 PM 42.8 °F 35.1 °F 41.0 °F 93% 29.58 in 4.0 mi WSW 16.1 mph 20.7 mph 0.00 in   Overcast
5:53 PM 43.0 °F 35.4 °F 41.0 °F 93% 29.58 in 2.5 mi WSW 16.1 mph 24.2 mph 0.00 in   Overcast
6:03 PM 42.8 °F 34.8 °F 39.2 °F 87% 29.57 in 3.0 mi WSW 17.3 mph 25.3 mph N/A   Overcast
6:25 PM 41.0 °F 32.5 °F 37.4 °F 87% 29.58 in 8.0 mi WSW 17.3 mph 24.2 mph N/A   Overcast
6:50 PM 41.0 °F 31.6 °F 37.4 °F 87% 29.60 in 9.0 mi WSW 20.7 mph 27.6 mph N/A   Overcast
6:53 PM 41.0 °F 31.6 °F 37.9 °F 89% 29.61 in 8.0 mi WSW 20.7 mph 27.6 mph N/A   Overcast
7:13 PM 39.2 °F 29.8 °F 37.4 °F 93% 29.61 in 3.0 mi WSW 18.4 mph 27.6 mph N/A   Overcast
7:23 PM 39.2 °F 30.2 °F 37.4 °F 93% 29.61 in 1.8 mi West 17.3 mph - N/A   Overcast
7:46 PM 39.2 °F 30.2 °F 37.4 °F 93% 29.62 in 2.0 mi West 17.3 mph 25.3 mph N/A   Overcast
7:53 PM 39.0 °F 30.6 °F 37.0 °F 93% 29.63 in 3.0 mi WSW 15.0 mph - N/A   Overcast
8:51 PM 39.2 °F 29.6 °F 37.4 °F 93% 29.65 in 2.5 mi WSW 19.6 mph 26.5 mph 0.01 in Rain Light Rain
8:53 PM 39.0 °F 28.8 °F 37.0 °F 93% 29.66 in 2.5 mi WSW 21.9 mph 29.9 mph 0.01 in Rain Light Rain
9:00 PM 39.2 °F 29.6 °F 37.4 °F 93% 29.66 in 3.0 mi West 19.6 mph 29.9 mph 0.00 in   Overcast
9:53 PM 37.0 °F 24.9 °F 33.1 °F 86% 29.70 in 10.0 mi WSW 27.6 mph 33.4 mph 0.00 in   Overcast
10:43 PM 35.6 °F 25.2 °F 32.0 °F 87% 29.70 in 10.0 mi WSW 18.4 mph 32.2 mph N/A   Overcast
10:53 PM 35.1 °F 24.8 °F 32.0 °F 89% 29.72 in 10.0 mi WSW 17.3 mph - N/A   Overcast
11:26 PM 35.6 °F 25.2 °F 32.0 °F 87% 29.71 in 10.0 mi West 18.4 mph - N/A   Overcast
11:53 PM 35.1 °F 26.4 °F 33.1 °F 92% 29.73 in 10.0 mi WSW 12.7 mph - N/A   Overcast